Location: ??????
(30.0081°N, 31.2109°E)
Time: 20:04:28
(UTC+00:00)

Daily predictions for brighter satellites

Satellite Brightness Start Highest point End
(mag) Time Altitude Azimuth Time Altitude Azimuth Time Altitude Azimuth
Cosmos 2360 Rocket 3.8 17:17:21 10° NW 17:22:23 35° WSW 17:27:25 10° SSW
Cosmos 2322 Rocket 4.2 17:18:41 10° NW 17:23:21 28° WSW 17:28:00 10° SSW
Cosmos 2263 Rocket 3.9 17:24:39 10° ESE 17:26:36 12° E 17:28:34 10° ENE
Cosmos 2227 Rocket 3.0 17:22:08 10° SSE 17:26:53 29° ESE 17:31:40 10° NE
Cosmos 1151 Rocket 3.1 17:23:04 10° S 17:27:12 58° E 17:31:24 10° NNE
Cosmos 1805 Rocket 4.2 17:25:21 10° NNE 17:29:20 35° E 17:33:16 10° SSE
BREEZE-M DEB (TANK) 3.9 17:27:54 10° SW 17:31:42 86° SE 17:42:53 10° NE
Cosmos 921 Rocket 4.1 17:28:56 10° SSE 17:32:17 23° E 17:35:41 10° NE
Cosmos 2322 3.9 17:30:08 10° NNW 17:35:47 62° ENE 17:41:25 10° SSE
CZ-4B DEB 4.4 17:30:35 10° SSE 17:35:53 55° ENE 17:41:12 10° N
Cosmos 1975 3.4 17:32:55 10° NNW 17:36:35 55° W 17:40:14 10° S
SL-4 R/B 2.3 17:33:19 10° SSW 17:37:15 45° SE 17:41:13 10° ENE
Cosmos 1300 3.9 17:36:01 10° NE 17:38:11 17° E 17:39:58 12° ESE
Helios 1B rocket 4.1 17:37:44 10° ESE 17:39:51 15° ENE 17:41:58 10° NE
Delta 2 Rocket 3.1 17:37:58 10° WNW 17:41:46 83° NNE 17:45:29 12° ESE
Cosmos 1818 3.5 17:37:28 10° SSW 17:42:53 84° ESE 17:48:20 10° NNE
CZ-4 R/B 1.2 17:39:35 10° SSE 17:43:22 72° ENE 17:47:05 10° N
CZ-4B R/B 3.7 17:40:46 10° SE 17:45:39 39° ENE 17:50:31 10° N
CSL-04 Rocket 3.7 17:45:12 10° SSE 17:50:23 64° ENE 17:55:37 10° N
CSL-04 Debris 4.2 17:45:44 10° SSE 17:51:07 65° ENE 17:56:28 10° N
Okean O Rocket 3.0 17:49:18 13° ESE 17:51:49 21° ENE 17:55:03 10° NNE
CZ-3A R/B 4.3 17:50:53 10° S 17:53:55 18° SE 18:00:29 10° E
PAYLOAD B 4.3 17:48:30 10° SSE 17:54:02 66° ENE 17:59:35 10° N
Cosmos 1743 Rocket 3.7 17:49:57 10° N 17:54:09 51° E 17:57:52 13° SSE
CZ-4B R/B 3.7 17:54:14 17° ESE 17:56:07 26° ENE 17:59:02 10° NNE
Cosmos 2219 4.4 17:53:11 13° SE 17:56:28 21° E 18:00:37 10° NE
Cosmos 2219 Rocket 3.8 17:52:25 10° NW 17:57:16 31° WSW 18:02:06 10° SSW
RESURS DK-1 2.7 17:53:38 10° S 17:57:20 38° ESE 18:01:04 10° NE
In-Cosmos 22 4.4 17:52:54 10° SSE 17:58:27 51° E 18:03:54 10° NNE
NOSS 3-2 (C) 4.4 17:51:58 10° NNW 18:00:09 85° WSW 18:09:01 12° SSE
SL-08 R/B 4.4 17:57:26 10° N 18:01:51 47° WNW 18:06:12 10° SSW
SL-14 R/B 4.0 18:04:57 20° SE 18:06:59 33° E 18:10:31 10° NNE
ARIANE 6 FM1 Upper Stage 3.7 18:03:29 10° N 18:07:16 33° NE 18:09:27 20° ESE
Resurs 01 Rocket 3.3 18:03:34 10° SSW 18:07:26 31° W 18:11:20 10° NW
Cosmos 1452 Rocket 3.7 18:02:21 10° N 18:07:31 54° ENE 18:11:03 20° SE
SL-24 DEB 4.2 18:04:08 13° SSE 18:08:09 62° E 18:12:41 10° N
Cosmos 1535 Rocket 4.4 18:04:16 10° N 18:10:24 86° E 18:16:30 10° S
Meteor PRIRODA 4.1 18:10:24 26° E 18:10:57 28° ENE 18:13:29 10° NNE
Cosmos 1605 Rocket 3.9 18:06:56 10° N 18:13:02 79° E 18:18:43 12° S
ERS-1 Rocket 3.8 18:11:55 21° ESE 18:14:29 34° ENE 18:18:59 10° N
USA 238 DEB 4.4 18:07:57 10° NNW 18:15:22 50° ENE 18:20:45 21° ESE
USA 238 4.4 18:08:03 10° NNW 18:15:28 50° ENE 18:20:50 21° ESE
CZ-2C R/B 4.4 18:14:42 10° SSW 18:17:34 26° W 18:20:26 10° NW
Helios 1A 2.9 18:13:51 10° NNE 18:17:42 53° E 18:20:08 21° S
Sakura Rocket 2.8 18:14:24 10° W 18:18:04 63° S 18:20:10 28° ESE
Cosmos 2237 Rocket 2.6 18:14:54 10° N 18:20:21 47° ENE 18:23:19 25° SE
Cosmos 1666 Rocket 3.9 18:21:17 10° N 18:25:33 46° E 18:27:08 32° SE
DNEPR-1 R/B 4.3 18:21:04 10° SSW 18:27:52 81° ESE 18:33:26 10° NNE
USA 186 3.5 18:30:09 14° SSW 18:31:51 25° W 18:34:13 10° NW
Cosmos 1633 Rocket 3.4 18:28:37 10° N 18:32:45 44° E 18:33:46 37° ESE
COSMOS 2455 3.4 18:27:26 10° N 18:33:09 44° ENE 18:35:46 28° ESE
USA 215 3.5 18:29:17 24° ESE 18:33:18 58° NE 18:39:41 10° NNW
Cosmos 1328 Rocket 3.7 18:30:26 12° SSW 18:34:29 72° W 18:38:52 10° N
OAO 1 4.4 18:31:06 10° WSW 18:36:35 88° SSE 18:42:06 10° ENE
Terra 2.1 18:35:42 35° SE 18:37:16 50° ENE 18:41:49 10° N
Okean-O 2.7 18:37:04 39° SE 18:38:23 56° ENE 18:42:40 10° N
MetOp-B 4.1 18:39:20 27° SSE 18:42:21 88° WSW 18:47:45 10° NNW
IRS-1A Rocket 4.4 18:41:10 33° SE 18:43:34 58° ENE 18:49:02 10° N
NOSS 0 Rocket 4.3 18:37:44 10° NNW 18:43:49 59° WSW 18:47:46 22° S
COSMOS 2428 4.1 18:41:46 10° NW 18:46:50 33° WSW 18:51:19 13° SSW
Cosmos 1758 3.6 18:51:21 10° N 18:54:30 46° NE 18:54:30 46° NE
Cosmos 1470 Rocket 3.7 18:52:15 10° N 18:56:31 53° E 18:56:40 52° E
SPOT 5 4.1 18:54:12 17° SSW 18:57:03 34° W 19:01:17 10° NNW
Meteor 1-22 Rocket 4.4 18:52:22 10° N 18:57:39 49° E 18:58:43 44° ESE
Cosmos 1437 Rocket 2.7 19:00:01 64° NNE 19:00:01 64° NNE 19:03:06 10° N
ATLAS 2A CENTAUR R/B 3.0 18:54:06 10° W 19:04:46 43° SSW 19:05:22 41° S
Cosmos 1515 Rocket 3.5 19:04:13 54° SSW 19:05:10 81° W 19:09:37 10° N
Skynet4D Del rocket 4.5 18:56:58 10° WSW 19:05:13 64° S 19:09:17 32° E
Cosmos 2263 Rocket 2.5 19:04:13 10° SSW 19:09:48 65° WNW 19:15:28 10° NNE
Lacrosse 4 Rocket 1.9 19:06:22 10° N 19:10:09 47° NE 19:10:09 47° NE
Cosmos 2227 Rocket 4.1 19:05:58 10° WSW 19:10:46 29° WNW 19:15:37 10° N
Cosmos 1455 3.7 19:08:43 10° NNW 19:10:15 25° NW 19:10:15 25° NW
Helios 1B rocket 4.0 19:12:18 21° WSW 19:13:15 24° W 19:16:15 10° NW
Ariane Rocket 3.5 19:13:42 42° ENE 19:13:48 43° ENE 19:18:34 10° N
SL-16 R/B 2.9 19:12:01 10° N 19:17:16 38° ENE 19:17:42 37° ENE
Cosmos 2173 Rocket 3.8 19:13:39 10° N 19:19:48 88° W 19:21:26 52° S
Meteor 1-23 Rocket 4.2 19:25:29 49° SSW 19:26:59 75° W 19:32:34 10° N
Okean O Rocket 3.4 19:26:35 20° WSW 19:27:50 23° W 19:31:17 10° NW
Cosmos 1864 Rocket 4.4 19:22:02 10° N 19:28:15 73° E 19:29:07 63° SE
Cosmos 2233 Rocket 4.4 19:26:37 10° N 19:32:38 45° E 19:32:42 45° E
Cosmos 1269 Rocket 4.4 19:32:03 39° SW 19:33:46 59° WNW 19:38:59 10° N
ATLAS CENTAUR R/B 2.5 19:31:09 10° NW 19:33:33 35° NW 19:33:33 35° NW
Meteor 2-16 Rocket 4.3 19:35:21 65° E 19:35:29 65° E 19:41:30 10° NNE
Meteor 1-21 4.2 19:35:08 65° SSW 19:36:00 81° W 19:41:45 10° N
SPOT 3 Rocket 3.4 19:38:28 85° NNE 19:38:28 85° NNE 19:43:29 10° NNW
Cosmos 2219 4.4 19:34:54 10° SW 19:40:13 40° WNW 19:45:37 10° N
Cosmos 2100 Rocket 4.4 19:34:29 10° NNW 19:40:26 54° W 19:42:10 41° SW
Cosmos 1992 Rocket 4.0 19:35:44 10° NNW 19:40:46 75° W 19:40:46 75° W
Meteor 1-12 Rocket 4.3 19:42:18 10° N 19:48:04 70° ENE 19:48:04 70° ENE
Cosmos 1725 Rocket 3.9 19:41:55 10° N 19:48:15 84° W 19:48:52 73° SSW
Spot 2 Rocket 4.4 19:51:19 38° WSW 19:51:38 38° W 19:56:20 10° NNW
Cosmos 1953 4.4 19:49:55 10° N 19:51:15 20° N 19:51:15 20° N
Cosmos 2237 Rocket 4.2 20:00:19 10° WNW 20:03:54 17° W 20:05:09 16° WSW
Terra 4.4 20:14:20 11° WSW 20:14:59 11° W 20:16:26 10° WNW
USA 215 4.4 20:16:38 29° WSW 20:16:38 29° WSW 20:21:55 10° WNW
Cosmos 1844 Rocket 3.4 20:20:02 47° NNE 20:20:02 47° NNE 20:24:01 10° NNE
Cosmos 909 Rocket 4.2 20:16:08 10° NNW 20:23:00 75° W 20:23:00 75° W
SL-16 R/B 4.2 20:56:49 10° NW 20:59:33 20° W 20:59:33 20° W
ATLAS 2AS CENTAUR R/B 3.0 21:12:28 65° NNW 21:12:28 65° NNW 21:18:42 10° NNE
Cosmos 2344 4.2 21:10:20 10° NNW 21:19:30 81° ENE 21:21:15 68° SE
SJ 16-02 4.1 21:27:45 15° N 21:27:45 15° N 21:28:34 10° N
Cosmos 2278 Rocket 4.5 21:45:35 15° ENE 21:45:35 15° ENE 21:46:49 10° NE
SL-12 R/B(2) 4.4 21:42:46 58° WNW 21:43:16 59° WNW 21:52:03 10° NNE
USA 59 Rocket 2.8 21:41:41 10° N 21:42:43 17° N 21:42:43 17° N
USA 234 3.7 22:30:40 10° NNE 22:36:42 53° NW 22:36:42 53° NW
ATLAS 3B R/B 3.6 22:40:55 10° NNW 22:48:24 48° NE 22:50:11 41° E
Cosmos 1833 Rocket 3.9 22:49:02 10° NNW 22:52:21 37° N 22:52:21 37° N
Resurs 1-4 Rocket 4.4 22:55:10 10° ENE 22:57:13 14° E 22:57:13 14° E
SeaSat 1 4.5 23:01:31 21° NNW 23:01:31 21° NNW 23:03:08 10° NNW
Atlas Centaur 2 3.7 23:03:29 40° ESE 23:03:29 40° ESE 23:08:44 10° E
CZ-2C R/B 3.7 23:15:41 38° NNW 23:15:41 38° NNW 23:18:55 10° NNW
Cosmos 1943 Rocket 3.3 23:20:08 36° NNW 23:20:08 36° NNW 23:23:51 10° N
CZ-2D R/B 3.9 23:17:08 10° NE 23:20:55 23° E 23:20:55 23° E
Cosmos 2278 Rocket 3.5 23:27:24 32° NW 23:27:24 32° NW 23:31:21 10° N
Cosmos 2082 Rocket 3.6 23:26:17 10° N 23:31:24 33° ENE 23:33:17 27° E
ADEOS II 3.9 23:30:18 10° NE 23:34:10 21° E 23:34:24 21° E
Cosmos 1607 4.0 23:50:58 66° ESE 23:50:58 66° ESE 23:57:06 10° NNE
IDEFIX/ARIANE 42P 3.2 23:47:34 10° N 23:51:36 48° NNW 23:51:36 48° NNW
Cosmos 1486 Rocket 4.5 23:55:36 54° NNW 23:55:36 54° NNW 23:59:47 10° N
